{"data":{"norad_id":45710,"intl_designator":"2020-035BF","name":"STARLINK-1423","alt_names":[],"object_type":"PAYLOAD","status":"ACTIVE","operator":null,"country":"US","launch_date":"2020-06-04","launch_site_code":"AFETR","launch_vehicle":null,"mission":null,"orbit_class":"UNKNOWN","rcs_meters":null,"size_class":null,"mass_kg":null,"dimensions":null,"purposes":["comms"],"wikipedia_slug":null,"has_3d_model":false,"image_url":null,"decayed_at":null,"tle_current":{"epoch":"2026-05-25T00:47:27.682656Z","epoch_age_seconds":82764,"freshness":"FRESH","line1":"1 45710U 20035BF  26145.03295929  .00052847  00000+0  48143-3 0  9992","line2":"2 45710  53.0453   9.5025 0007107  64.6815 295.4936 15.67383859331274","mean_motion":15.67383859,"eccentricity":0.0007107,"inclination_deg":53.0453,"raan_deg":9.5025,"arg_perigee_deg":64.6815,"mean_anomaly_deg":295.4936,"bstar":0.00048143,"rev_number":33127,"period_min":91.872835855202,"perigee_km":361.59817020593,"apogee_km":371.18484302523,"semimajor_km":6744.5285066156,"source":"CELESTRAK","updated_at":"2026-05-25T13:38:16.431422Z"}}}